Simultaneous Nadir Overpasses (SNOs) Predictions

Prediction of SNOs between NOAA-20 and LANDSAT-8 Satellite Orbit:

Table of predicted SNOs for the next 14.0 days since TLE Epoch: 2/16/2018
Index Date (NOAA-20) Time (NOAA-20) Lat,Lon (NOAA-20) SZA (NOAA-20 ) Date (LANDSAT-8) Time (LANDSAT-8) Lat,Lon (LANDSAT-8) SZA (LANDSAT-8 ) Distance(km) Time Diff (sec)
1 02/16/2018 22:49:10 -70.12, 13.97 97.75 02/16/2018 22:49:57 -70.15, 13.93 97.73 3.21 47
2 02/16/2018 23:39:55 70.05,-178.62 82.18 02/16/2018 23:39:24 70.05,-178.56 82.17 2.30 31
3 02/19/2018 14:15:37 70.95, -38.91 82.20 02/19/2018 14:16:44 70.86, -36.76 82.02 78.78 67
4 02/19/2018 15:06:05 -70.12, 129.73 98.69 02/19/2018 15:06:26 -70.09, 129.74 98.73 3.31 21
5 02/19/2018 15:56:49 70.01, -62.78 81.18 02/19/2018 15:55:53 69.99, -62.76 81.17 1.91 56
6 02/22/2018 06:32:17 70.17, 78.12 80.40 02/22/2018 06:33:25 70.15, 78.06 80.37 3.07 68
7 02/22/2018 07:22:59 -70.08,-114.43 99.71 02/22/2018 07:22:54 -70.09,-114.39 99.70 2.42 5
8 02/22/2018 08:13:37 69.64, 53.53 79.82 02/22/2018 08:12:26 69.71, 52.72 79.94 31.94 71
9 02/24/2018 22:49:11 70.12,-166.04 79.37 02/24/2018 22:49:53 70.13,-166.08 79.37 2.23 42
10 02/24/2018 23:39:53 -70.03, 1.41 100.75 02/24/2018 23:39:23 -70.03, 1.40 100.74 0.40 30
11 02/27/2018 14:15:34 -70.92, 141.14 100.78 02/27/2018 14:16:42 -70.83, 143.19 100.96 75.19 68
12 02/27/2018 15:06:05 70.12, -50.29 78.37 02/27/2018 15:06:20 70.12, -50.22 78.35 2.52 15
13 02/27/2018 15:56:46 -69.98, 117.25 101.81 02/27/2018 15:55:51 -69.96, 117.19 101.81 3.22 55
14 03/02/2018 06:32:15 -70.19,-101.92 102.58 03/02/2018 06:33:22 -70.16,-101.93 102.62 3.26 67
15 03/02/2018 07:22:59 70.08, 65.55 77.30 03/02/2018 07:22:48 70.10, 65.63 77.31 3.47 11
16 03/02/2018 08:13:35 -69.67,-126.51 103.16 03/02/2018 08:12:23 -69.72,-127.26 103.06 29.59 72




NCC Satellite Simultaneous Nadir Overpasses (SNOs) Prediction Service
